Wetbulb
61.90 61.99 61.61 61.42 61.01 60.77 61.02 60.82 60.21 59.33 59.02 58.97 59.11 59.13 59.54 59.42 58.74 57.80 56.73 56.11 56.27 56.37 56.31 56.39 56.92 57.24 58.73 56.68 56.23 60.13 62.71 61.44 57.18 57.13 55.27 54.50 53.39 53.39 50.98 52.64 53.13 51.92 52.72 53.90 54.47 54.18 53.86
61.41 61.32 61.26 60.87 60.90 60.93 61.16 60.72 60.10 59.38 58.76 58.53 58.93 58.94 58.79 58.49 58.04 57.42 56.51 55.72 55.69 55.59 55.86 56.32 57.13 56.48 56.82 51.61 60.26 60.57 59.92 59.46 58.77 56.98 55.50 55.78 54.91 55.66 52.84 51.86 51.29 52.90 52.75 52.74 53.69 53.22 53.48
61.67 61.14 60.91 60.56 60.45 60.42 60.35 59.74 59.66 59.47 58.81 58.53 58.56 58.98 58.36 57.94 57.35 56.56 55.92 55.48 55.10 55.47 55.74 56.46 56.79 56.80 55.64 55.70 61.24 60.64 60.33 58.18 58.66 59.27 57.22 58.71 58.63 54.96 54.63 51.88 54.83 53.63 50.09 51.58 52.14 52.69 51.87
61.26 61.09 61.05 60.28 59.81 59.57 59.46 59.24 59.18 59.15 59.05 58.67 58.68 58.89 57.86 57.08 56.05 55.45 55.00 54.62 54.86 55.54 55.89 57.18 55.86 57.75 55.54 61.16 61.27 59.15 59.16 57.32 58.87 58.65 58.49 59.28 58.71 56.28 54.35 55.05 52.64 49.82 50.17 46.20 51.42 52.80 53.43
60.66 60.81 60.83 60.20 59.63 59.18 59.02 58.96 58.91 59.04 58.90 58.67 58.43 58.83 57.90 56.77 55.51 54.76 54.29 54.19 54.68 55.67 56.78 56.97 55.95 58.27 53.83 58.80 57.55 59.35 59.07 55.75 56.61 57.09 57.18 57.21 56.26 53.05 53.45 49.71 47.85 49.60 45.07 47.09 49.22 53.66 52.77
60.60 60.37 60.27 59.94 59.57 59.25 59.11 58.78 58.52 58.31 58.28 58.00 58.22 58.85 58.21 56.77 55.49 54.39 53.67 53.86 56.94 57.22 60.35 61.11 58.05 54.15 57.61 55.61 57.48 56.88 57.54 57.53 55.34 55.83 54.79 54.09 52.96 50.22 50.36 48.42 41.81 45.36 45.96 47.39 47.21 50.63 51.16
60.42 60.29 60.19 59.72 59.58 59.54 59.56 59.24 58.54 57.92 57.75 57.85 57.96 58.33 58.00 56.76 55.55 54.41 55.57 59.65 55.47 54.84 56.33 52.21 53.22 52.74 54.92 58.39 56.55 54.83 55.72 53.89 53.28 53.15 48.58 52.24 48.44 46.23 49.36 50.82 50.54 49.04 47.18 45.92 48.25 50.74 48.67
59.52 59.85 59.94 59.88 59.58 59.58 59.76 59.58 58.52 57.56 57.58 57.53 57.65 57.91 57.96 56.68 54.96 54.12 56.92 56.26 55.34 55.88 48.19 54.00 54.27 55.11 57.36 54.90 50.40 53.65 55.22 51.02 50.97 47.94 51.22 49.07 45.51 49.93 51.51 50.79 48.89 47.65 45.35 44.61 47.42 48.98 48.17
58.65 58.69 59.27 59.54 59.62 59.35 59.51 59.51 58.36 57.48 57.22 57.20 57.32 57.68 57.86 55.98 54.12 56.80 59.41 57.15 60.22 58.15 48.60 51.93 56.24 53.90 53.09 52.93 50.97 51.42 53.43 52.87 49.99 48.26 48.71 46.66 48.44 50.86 49.11 47.65 46.10 45.39 43.86 44.12 43.38 46.14 47.14
58.00 57.64 58.12 58.87 59.17 59.09 58.84 58.78 58.30 57.72 57.03 56.61 56.59 57.07 56.57 54.53 54.44 59.55 57.22 60.24 60.40 57.88 45.25 49.60 51.47 52.11 51.88 52.24 49.55 54.00 54.17 51.60 49.96 47.49 48.83 47.27 49.98 47.77 46.31 45.09 46.12 41.73 46.71 45.53 43.95 42.39 37.89
57.60 57.40 57.46 57.82 58.10 57.73 57.45 57.61 57.69 57.60 56.97 56.59 55.95 56.23 55.26 52.17 57.60 56.46 58.28 60.54 58.62 56.03 35.76 52.22 49.71 54.21 52.38 49.34 51.08 51.24 54.71 52.44 47.44 47.40 47.97 45.69 47.15 46.63 45.53 46.35 47.66 43.76 46.99 44.04 43.12 41.25 40.36
57.26 57.28 57.22 57.14 56.93 56.73 56.59 56.61 56.55 56.53 56.41 56.07 55.71 55.31 53.43 55.15 57.39 59.74 60.51 58.92 56.17 43.88 35.27 48.73 49.85 48.00 48.13 49.90 50.47 53.98 54.42 56.22 54.19 48.42 47.81 46.45 50.12 48.25 47.24 48.51 47.61 47.37 43.88 43.15 42.65 40.72 33.38
56.77 56.75 56.71 56.61 56.49 56.25 56.37 56.09 55.91 55.59 55.65 55.35 54.80 54.14 54.21 58.61 54.81 60.50 59.91 54.14 41.93 36.79 49.59 47.52 47.77 49.26 48.62 48.49 49.89 51.44 50.12 48.36 45.40 42.10 42.61 46.37 46.49 49.45 49.20 44.44 46.72 45.05 41.10 32.55 31.44 32.91 32.09
56.63 56.45 56.43 56.41 56.33 55.97 55.87 55.77 55.15 54.99 54.89 54.58 53.98 52.98 53.30 55.36 56.41 56.45 53.49 45.89 33.72 41.79 44.49 51.58 50.10 49.66 46.40 49.30 49.07 49.20 46.53 44.44 48.41 44.60 41.05 38.69 37.65 44.06 46.71 43.12 40.62 40.93 40.07 32.79 26.57 28.22 32.57
56.63 56.27 56.13 56.13 55.95 55.83 55.43 55.35 54.87 54.55 54.28 54.18 52.85 52.22 51.24 52.28 53.83 52.65 46.49 35.66 38.18 42.30 46.28 45.09 46.76 44.60 45.28 47.69 45.17 45.81 45.17 44.63 44.14 44.18 38.74 37.43 38.09 45.58 45.65 44.53 42.93 39.85 35.57 40.65 33.44 34.30 30.28
56.67 56.13 55.85 55.59 55.53 55.43 55.15 54.83 54.83 54.55 53.94 52.76 50.36 48.02 46.78 52.66 52.89 48.39 40.52 38.39 41.19 46.37 47.02 45.76 38.99 42.61 39.52 42.02 40.77 42.17 42.13 43.71 41.17 43.05 43.90 39.46 33.46 42.16 43.50 43.52 43.23 40.19 42.40 32.55 33.70 24.35 22.75
56.07 55.99 55.65 55.35 54.91 54.65 54.71 54.75 54.52 54.28 53.76 52.47 47.81 44.13 47.14 51.10 49.78 42.36 35.57 38.35 42.45 46.78 43.97 40.74 40.29 39.90 40.34 39.67 41.40 40.84 39.56 41.90 42.18 40.87 42.35 40.14 36.66 36.25 40.30 37.80 36.49 37.57 35.10 34.91 34.30 31.73 25.14
55.15 55.17 54.93 54.89 54.73 54.40 54.44 54.44 54.28 54.10 52.79 51.83 46.74 40.92 47.32 50.07 38.83 39.02 37.10 39.35 41.55 41.73 42.18 40.90 41.08 40.59 39.42 39.43 37.28 37.42 37.06 39.98 42.20 41.87 37.12 38.69 34.30 29.64 33.02 39.16 40.66 38.29 35.49 35.08 27.47 25.66 28.10
54.76 54.58 54.60 54.40 54.40 54.24 54.06 54.42 54.30 52.63 52.46 48.85 41.58 38.28 46.04 46.16 33.85 32.85 36.14 37.66 38.75 38.61 39.46 39.01 38.09 40.53 40.63 37.95 34.75 37.40 38.78 41.14 40.60 39.86 36.74 36.67 31.04 24.86 29.57 35.57 37.77 34.04 35.60 35.19 33.61 30.56 23.57
54.28 53.94 53.92 54.08 54.40 54.22 54.22 54.06 53.92 52.51 51.75 44.90 38.61 32.58 36.14 40.65 37.30 37.13 34.53 33.85 34.51 39.55 38.89 40.25 38.58 39.43 37.39 36.60 38.84 36.05 37.07 38.25 39.07 38.57 36.77 35.34 30.94 27.45 23.52 28.37 31.75 27.80 30.50 32.04 29.80 22.61 22.62
53.59 53.70 53.72 53.70 53.76 53.90 53.56 53.03 52.61 52.26 50.15 46.60 41.20 35.61 38.13 30.66 32.13 34.58 36.81 34.96 34.15 33.77 37.95 39.68 36.35 37.34 36.80 33.12 35.50 35.55 36.74 36.32 38.30 37.77 35.75 33.76 26.09 28.83 29.81 30.72 30.44 29.00 28.14 28.51 26.30 27.48 22.72
53.11 52.79 52.97 53.13 52.71 52.87 52.65 52.49 52.01 50.59 48.85 42.23 34.36 34.13 36.10 34.00 36.21 33.26 33.27 33.11 34.81 35.59 35.67 34.85 35.61 37.43 37.74 35.25 35.05 31.73 34.90 34.71 34.19 37.15 34.98 35.03 26.11 28.36 23.64 29.19 28.52 25.43 27.88 28.61 28.97 29.58 29.45
53.15 52.40 51.80 51.93 51.55 51.11 51.43 51.00 49.30 48.89 47.04 39.32 40.06 40.63 39.01 32.91 32.40 32.75 33.92 34.98 36.05 37.02 37.15 38.84 37.74 36.52 36.06 37.21 39.07 39.63 39.44 38.39 36.92 33.86 31.98 31.13 28.93 26.08 20.87 26.99 26.21 21.14 25.76 28.50 30.09 32.14 31.18
50.95 50.22 49.93 49.15 48.64 48.21 47.66 47.49 48.08 47.47 46.55 43.81 42.36 41.35 35.93 32.38 33.92 34.22 35.06 36.70 35.81 36.35 35.06 37.95 37.97 35.30 37.42 40.57 39.43 38.43 36.74 35.19 34.41 33.68 34.87 29.32 27.88 26.31 21.12 23.85 13.50 26.72 33.54 33.68 30.97 32.03 32.99
49.30 49.22 48.68 48.21 47.12 46.89 47.03 46.74 46.74 46.87 46.48 44.98 45.13 42.05 37.97 33.49 36.31 36.36 37.38 36.93 37.73 38.39 36.19 36.08 37.35 38.14 40.25 35.71 28.92 25.30 26.60 27.68 29.46 32.13 31.93 32.82 28.41 23.10 19.17 19.53 23.91 27.48 30.91 29.33 27.65 27.36 31.41
48.36 47.87 47.57 46.76 45.91 45.79 45.61 45.48 45.65 47.00 47.22 44.58 43.11 45.44 42.01 37.68 36.02 39.50 37.75 38.04 34.44 33.94 34.13 35.46 38.62 39.89 37.23 32.55 27.29 19.44 18.55 24.42 23.88 28.11 34.09 32.69 31.78 25.32 22.41 15.96 13.59 26.53 31.55 34.33 33.80 22.66 30.62
46.85 46.60 46.12 45.33 44.95 44.80 44.64 44.39 44.72 45.17 45.65 45.13 43.55 47.06 42.41 38.95 38.22 38.57 35.24 35.06 38.01 36.06 33.47 35.04 34.51 32.75 35.39 28.48 23.46 21.23 21.04 28.31 21.92 22.57 24.73 26.60 27.21 21.87 21.01 18.90 22.77 29.80 32.39 34.45 20.50 22.53 30.82
46.05 45.79 45.09 44.69 44.54 44.41 44.08 43.91 44.15 44.65 45.71 45.42 41.97 45.49 41.64 38.00 36.53 38.40 37.92 35.67 35.98 35.50 31.64 34.37 32.14 32.47 31.17 25.31 24.48 24.88 23.80 26.43 25.46 27.66 25.54 23.85 21.84 21.13 22.84 18.75 15.14 33.32 31.73 24.30 29.78 33.25 33.18
44.96 44.38 44.13 43.94 43.55 43.14 42.86 42.69 42.78 43.12 43.11 44.11 38.76 42.94 44.33 38.99 35.90 40.63 40.34 41.04 39.57 38.50 35.87 35.49 32.95 31.95 32.84 28.71 29.32 28.64 25.47 26.96 25.45 19.40 30.37 22.32 26.92 23.44 23.89 23.81 32.49 34.67 33.06 35.54 35.62 34.24 34.43
MSLP
1016.86 1016.91 1017.22 1017.29 1017.37 1017.56 1017.56 1017.72 1017.58 1017.90 1017.80 1017.83 1017.78 1017.77 1017.36 1017.02 1016.57 1016.06 1015.35 1014.69 1013.89 1013.06 1012.73 1012.34 1011.93 1011.19 1010.10 1008.19 1005.85 1005.92 1006.42 1006.41 1006.17 1006.04 1005.55 1004.81 1004.20 1003.67 1002.90 1002.23 1001.72 1000.81 1000.28 999.86 999.46 999.17 999.03
1016.37 1016.67 1016.84 1017.04 1017.02 1017.32 1017.35 1017.46 1017.43 1017.59 1017.57 1017.63 1017.59 1017.61 1017.30 1016.74 1016.27 1015.82 1015.22 1014.44 1013.60 1012.76 1012.25 1011.96 1011.78 1011.28 1010.06 1007.31 1004.94 1005.02 1005.47 1005.47 1005.50 1005.14 1004.87 1004.44 1003.76 1003.30 1002.73 1002.43 1001.88 1001.32 1000.67 1000.03 999.45 999.27 999.03
1016.09 1016.44 1016.45 1016.85 1016.71 1016.93 1017.10 1016.99 1017.18 1017.34 1017.37 1017.40 1017.37 1017.43 1017.19 1016.54 1016.12 1015.60 1014.99 1014.06 1013.08 1012.17 1011.74 1011.40 1011.60 1010.93 1008.88 1006.12 1004.83 1004.79 1004.87 1004.83 1004.66 1004.25 1003.91 1003.63 1003.35 1003.33 1002.94 1002.50 1001.77 1001.36 1000.97 1000.22 999.54 998.99 998.17
1015.34 1016.02 1016.18 1016.51 1016.49 1016.64 1016.66 1016.72 1016.92 1016.85 1017.10 1017.17 1017.19 1017.25 1017.05 1016.47 1015.97 1015.46 1014.78 1013.65 1012.36 1011.33 1010.98 1010.77 1011.24 1010.42 1007.08 1005.16 1005.01 1004.71 1004.69 1004.02 1004.05 1004.20 1004.19 1003.95 1003.74 1003.46 1003.19 1002.95 1002.38 1001.78 1001.03 999.63 998.73 997.84 996.88
1014.67 1015.29 1015.60 1015.95 1016.09 1016.09 1016.44 1016.51 1016.55 1016.52 1016.71 1016.82 1016.97 1017.06 1016.83 1016.42 1015.96 1015.33 1014.41 1013.13 1011.37 1010.14 1010.08 1010.28 1010.43 1009.17 1006.17 1005.44 1004.87 1004.75 1004.82 1004.18 1003.88 1004.05 1003.90 1003.88 1004.02 1003.56 1003.27 1002.64 1001.72 1000.80 999.58 998.50 997.35 996.76 996.18
1013.91 1014.38 1014.97 1015.34 1015.65 1015.60 1015.95 1016.15 1016.10 1016.33 1016.24 1016.48 1016.66 1016.81 1016.66 1016.17 1015.82 1015.05 1014.11 1012.39 1009.77 1009.18 1008.43 1008.20 1008.67 1008.02 1005.51 1004.74 1004.62 1004.69 1004.41 1004.28 1004.14 1003.93 1003.46 1003.71 1003.70 1002.92 1002.46 1002.07 1000.84 999.82 999.02 998.20 997.25 997.23 996.87
1013.28 1013.81 1014.42 1014.51 1015.01 1015.21 1015.49 1015.68 1015.72 1015.88 1015.94 1016.05 1016.39 1016.49 1016.41 1016.21 1015.80 1014.94 1014.10 1011.45 1010.07 1008.77 1008.94 1008.89 1007.69 1006.75 1005.38 1004.76 1004.65 1003.96 1003.88 1003.87 1003.85 1003.86 1003.46 1003.01 1002.78 1001.81 1001.03 1000.78 1000.46 1000.20 999.69 998.75 998.12 997.82 997.43
1012.61 1013.00 1013.84 1013.97 1014.31 1014.65 1014.86 1015.35 1015.27 1015.36 1015.70 1015.68 1015.98 1016.13 1016.18 1016.04 1015.68 1015.00 1014.26 1012.56 1012.46 1012.52 1009.41 1007.84 1006.50 1005.92 1005.29 1005.45 1004.79 1003.66 1003.99 1003.53 1003.14 1002.96 1002.58 1002.32 1001.39 1000.98 1000.84 1000.60 1000.44 1000.31 999.74 999.03 998.28 998.08 998.12
1011.96 1012.18 1013.02 1013.55 1013.76 1013.94 1014.25 1014.73 1014.89 1014.99 1015.23 1015.47 1015.67 1015.88 1016.00 1015.83 1015.50 1014.84 1013.35 1012.79 1012.46 1012.43 1010.58 1005.81 1004.47 1004.57 1004.78 1005.39 1004.18 1003.08 1003.61 1002.92 1002.67 1002.23 1001.79 1001.15 1000.23 1000.24 1000.17 1000.20 1000.10 1000.31 999.98 999.46 998.97 998.54 997.86
1011.19 1011.46 1012.26 1012.91 1013.08 1013.43 1013.69 1013.91 1014.23 1014.56 1014.77 1015.05 1015.44 1015.76 1015.78 1015.68 1015.78 1014.11 1013.01 1012.80 1012.69 1012.95 1010.52 1005.47 1004.47 1004.22 1004.84 1004.97 1003.94 1003.26 1003.39 1003.54 1002.98 1002.29 1001.79 1001.21 1000.49 1000.28 1000.36 1000.31 1000.50 1000.15 1000.46 1000.04 999.92 999.94 998.13
1010.29 1010.85 1011.64 1012.10 1012.43 1012.79 1013.34 1013.03 1013.73 1014.12 1014.28 1014.67 1015.03 1015.48 1015.61 1015.46 1015.25 1013.98 1013.62 1013.27 1012.96 1012.81 1009.43 1004.66 1004.54 1004.73 1004.29 1004.47 1003.63 1002.94 1003.05 1003.01 1003.12 1002.83 1002.72 1001.32 1000.88 1000.54 1000.08 999.91 1000.03 1000.21 1001.12 1001.53 1001.72 1001.32 1000.61
1009.39 1010.13 1010.93 1011.25 1011.64 1012.21 1012.63 1012.57 1013.23 1013.67 1014.03 1014.38 1014.86 1015.47 1015.65 1015.57 1015.12 1014.21 1013.72 1013.76 1013.19 1012.17 1008.15 1004.45 1004.17 1004.26 1004.32 1003.86 1003.27 1002.50 1002.44 1002.49 1002.63 1002.85 1002.98 1002.10 1001.74 1001.24 1000.36 1000.40 1000.92 1001.55 1002.05 1002.38 1002.51 1003.09 1001.59
1008.48 1009.33 1010.10 1010.57 1010.81 1011.50 1011.76 1012.06 1012.71 1013.21 1013.55 1014.06 1014.55 1014.93 1015.25 1014.43 1014.22 1013.74 1013.97 1013.80 1013.24 1010.85 1006.64 1004.58 1004.25 1004.13 1004.07 1003.66 1003.24 1003.03 1002.70 1002.89 1003.04 1002.77 1002.64 1002.10 1001.55 1000.87 1000.94 1001.07 1001.61 1002.44 1003.22 1003.62 1003.06 1002.11 1001.40
1007.77 1008.42 1009.13 1009.67 1010.17 1010.54 1011.05 1011.37 1012.11 1012.62 1013.12 1013.59 1014.05 1014.52 1014.66 1014.51 1014.28 1014.65 1014.74 1014.71 1013.26 1010.28 1008.15 1005.81 1005.84 1005.29 1004.94 1004.55 1004.09 1003.77 1004.03 1003.93 1003.54 1004.27 1004.75 1003.97 1002.87 1002.74 1002.65 1003.08 1003.66 1004.03 1004.42 1005.28 1004.86 1003.85 1002.72
1006.87 1007.55 1008.22 1008.89 1009.42 1009.69 1010.36 1010.62 1011.40 1011.90 1012.51 1013.06 1013.79 1014.50 1014.78 1014.67 1014.61 1015.01 1015.26 1014.50 1011.85 1010.66 1009.25 1008.45 1007.41 1006.33 1005.78 1005.56 1005.93 1005.55 1005.08 1004.99 1006.00 1006.60 1006.84 1006.07 1004.73 1004.41 1004.48 1004.81 1005.20 1005.03 1005.75 1006.35 1007.09 1006.12 1005.48
1006.03 1006.78 1007.44 1008.01 1008.58 1008.89 1009.42 1009.90 1010.59 1011.16 1011.80 1012.68 1013.57 1014.44 1014.82 1014.67 1015.08 1015.53 1015.75 1013.75 1012.25 1011.01 1010.29 1010.07 1009.70 1009.23 1008.45 1008.07 1008.26 1007.60 1006.74 1007.27 1007.89 1008.43 1008.69 1008.20 1007.35 1005.92 1005.57 1006.18 1006.05 1006.20 1006.42 1007.30 1008.32 1007.48 1005.88
1005.28 1005.99 1006.60 1007.16 1007.68 1008.17 1008.52 1009.08 1009.80 1010.52 1011.07 1011.97 1013.21 1014.40 1015.06 1014.99 1015.46 1016.03 1015.07 1013.77 1012.44 1011.55 1011.47 1011.71 1010.99 1010.76 1010.41 1010.25 1009.82 1009.31 1008.94 1008.69 1009.36 1009.57 1009.70 1009.85 1009.57 1007.83 1007.50 1007.09 1006.52 1006.68 1007.28 1008.42 1009.03 1008.49 1007.50
1004.57 1005.29 1005.74 1006.31 1006.93 1007.46 1007.89 1008.46 1009.10 1009.83 1010.77 1011.80 1012.98 1014.44 1015.15 1015.23 1015.89 1015.74 1014.70 1013.67 1013.15 1012.43 1012.84 1012.75 1012.60 1012.12 1011.79 1011.57 1011.21 1010.72 1010.00 1009.87 1010.31 1010.31 1010.41 1011.05 1010.74 1009.17 1008.06 1007.82 1007.46 1007.56 1007.55 1008.31 1009.20 1009.26 1009.17
1003.74 1004.42 1005.13 1005.65 1006.15 1006.54 1006.96 1007.59 1008.07 1009.26 1009.65 1011.30 1012.83 1014.53 1015.35 1015.34 1015.31 1015.24 1014.94 1014.15 1013.73 1013.42 1013.19 1013.13 1012.86 1012.71 1012.72 1012.70 1012.74 1011.88 1011.12 1010.91 1011.23 1011.12 1011.08 1011.58 1011.49 1010.54 1008.32 1007.43 1008.09 1008.11 1008.18 1008.79 1009.73 1010.12 1009.54
1002.71 1003.42 1004.31 1004.72 1005.24 1005.77 1006.02 1006.38 1007.07 1008.15 1009.03 1010.25 1012.73 1014.31 1015.26 1015.19 1015.08 1014.45 1014.40 1014.13 1013.91 1013.75 1013.61 1013.46 1013.43 1013.39 1013.48 1013.10 1012.92 1012.28 1012.02 1011.98 1012.13 1012.07 1012.71 1012.85 1012.41 1012.06 1010.77 1009.79 1009.81 1009.77 1009.64 1009.95 1010.45 1010.50 1010.19
1001.69 1002.82 1003.32 1003.75 1004.43 1004.59 1005.52 1005.55 1006.25 1007.26 1008.44 1009.79 1011.75 1012.42 1013.04 1014.06 1014.13 1014.32 1014.12 1013.79 1013.77 1013.98 1014.18 1013.94 1013.77 1013.36 1013.15 1012.98 1012.63 1012.22 1012.17 1012.51 1012.50 1012.64 1013.05 1013.30 1012.47 1012.40 1011.59 1011.33 1010.98 1010.55 1010.23 1010.47 1010.57 1010.44 1010.08
1001.57 1002.42 1002.99 1003.48 1003.79 1004.72 1004.77 1005.36 1006.09 1007.25 1008.23 1009.71 1011.54 1012.61 1013.11 1013.37 1013.29 1013.70 1013.85 1013.54 1013.52 1013.64 1013.71 1013.62 1013.40 1013.16 1013.04 1012.69 1012.20 1012.36 1012.17 1012.37 1012.10 1012.08 1012.36 1012.66 1012.42 1012.64 1011.85 1012.09 1011.68 1010.83 1010.59 1010.16 1009.71 1009.26 1008.96
1001.23 1001.80 1002.44 1002.87 1003.84 1004.35 1004.49 1005.00 1006.06 1006.81 1007.56 1009.98 1011.33 1011.87 1011.29 1012.64 1013.27 1013.45 1013.14 1012.69 1012.69 1012.87 1013.19 1013.23 1013.23 1013.16 1012.82 1012.75 1012.55 1012.39 1012.18 1012.14 1012.01 1012.00 1012.22 1012.33 1012.38 1012.73 1011.79 1012.12 1011.56 1010.55 1010.14 1009.41 1008.61 1008.44 1008.60
1001.76 1002.39 1002.74 1003.69 1004.43 1004.83 1005.43 1005.63 1006.77 1007.38 1007.25 1008.42 1009.95 1010.69 1011.42 1012.26 1012.17 1012.27 1012.27 1012.44 1012.46 1012.62 1012.86 1012.90 1013.12 1013.16 1013.19 1012.89 1012.79 1012.68 1012.53 1012.39 1012.29 1012.10 1012.25 1012.32 1012.62 1012.87 1012.52 1012.38 1011.03 1009.85 1009.22 1008.30 1008.27 1008.98 1009.09
1002.31 1002.64 1003.68 1004.62 1005.19 1005.36 1006.14 1006.85 1007.34 1007.54 1007.71 1008.32 1009.65 1009.91 1010.66 1010.75 1011.01 1011.29 1011.48 1011.75 1012.08 1012.47 1012.73 1012.67 1012.51 1013.01 1012.98 1013.27 1013.52 1012.99 1012.12 1011.59 1010.98 1010.88 1011.13 1011.75 1012.28 1012.49 1012.46 1011.70 1010.69 1009.91 1008.89 1009.39 1009.33 1009.73 1011.32
1003.11 1003.66 1004.67 1005.77 1006.27 1006.65 1007.00 1007.58 1007.66 1007.83 1008.56 1008.71 1009.47 1009.50 1009.86 1009.73 1009.95 1009.98 1010.29 1010.92 1011.16 1011.61 1011.93 1012.02 1012.76 1013.15 1013.39 1013.77 1013.81 1013.45 1012.26 1010.99 1010.38 1009.51 1009.67 1010.25 1010.89 1012.07 1012.38 1011.62 1010.58 1009.67 1010.30 1010.64 1009.99 1010.41 1011.83
1003.86 1004.57 1005.17 1006.34 1007.26 1007.43 1007.73 1007.80 1007.79 1008.41 1008.78 1008.79 1009.46 1009.77 1009.47 1009.30 1009.36 1009.06 1009.65 1009.89 1009.98 1010.40 1010.88 1011.37 1012.49 1013.48 1013.76 1014.02 1013.99 1013.39 1012.54 1011.92 1010.94 1010.13 1010.02 1009.96 1010.35 1011.19 1011.57 1011.36 1010.64 1010.70 1010.84 1010.39 1010.71 1012.29 1012.14
1004.70 1005.16 1005.54 1007.19 1007.83 1008.06 1008.16 1008.08 1008.26 1008.42 1008.76 1008.72 1009.84 1009.96 1009.82 1009.21 1010.18 1010.20 1010.53 1010.45 1010.44 1010.74 1010.90 1011.64 1012.70 1013.02 1013.49 1013.96 1013.70 1013.12 1012.15 1011.30 1010.63 1010.29 1010.36 1010.43 1010.84 1010.97 1011.05 1010.92 1010.43 1010.36 1010.91 1011.78 1012.17 1011.98 1012.59
1005.34 1005.88 1006.61 1007.31 1008.18 1008.42 1008.46 1008.72 1008.62 1008.95 1009.14 1009.43 1009.89 1010.39 1009.55 1009.48 1011.05 1011.17 1011.52 1011.41 1011.60 1011.63 1011.46 1011.79 1012.32 1012.59 1013.09 1013.22 1013.34 1013.24 1012.61 1012.12 1011.45 1011.04 1010.57 1010.55 1010.87 1011.14 1011.55 1010.57 1010.14 1010.02 1011.26 1011.52 1011.65 1012.21 1012.41
Wind_Speed
13 12 12 12 10 9 8 9 7 8 7 8 8 10 11 13 14 16 18 21 23 24 21 18 16 17 12 10 16 7 4 4 6 8 13 14 15 15 19 18 20 23 19 20 22 20 22
13 13 12 12 10 10 9 9 8 8 8 8 8 10 11 12 13 15 18 21 24 25 22 19 12 13 11 17 3 6 8 8 10 12 13 14 14 15 18 18 18 19 22 23 23 22 23
13 14 13 13 11 11 10 9 9 8 8 8 8 10 11 12 14 16 18 21 24 26 21 18 10 7 9 18 2 6 7 10 13 13 14 13 12 12 12 17 16 12 17 20 21 24 25
15 14 14 13 12 11 10 10 10 8 8 8 8 9 11 13 13 16 20 23 27 28 21 16 4 8 8 4 8 3 8 10 10 10 12 12 13 14 16 14 19 22 21 20 21 24 23
16 15 15 14 13 11 11 10 9 8 8 8 8 9 11 11 13 18 21 26 31 29 16 7 7 9 11 4 7 5 8 9 4 9 11 8 8 15 15 16 17 18 19 25 24 20 19
18 17 16 15 13 12 12 11 10 9 7 7 7 8 11 10 13 17 21 29 28 23 11 14 8 11 8 7 15 15 14 13 10 11 9 10 9 13 14 14 15 17 20 22 22 19 21
19 17 17 16 15 14 13 12 10 9 7 7 7 8 10 10 13 18 15 14 13 9 14 13 22 27 23 15 12 8 3 6 9 10 11 12 14 15 16 17 20 22 24 27 24 22 23
19 18 17 16 16 14 13 13 11 9 9 8 8 7 8 10 12 16 13 10 12 10 17 22 25 22 18 4 7 10 4 7 5 10 14 15 17 21 21 19 19 20 24 24 22 22 20
19 18 17 17 16 15 14 13 11 11 10 8 8 7 7 9 10 10 8 6 9 12 10 14 11 7 5 7 8 2 4 5 8 12 13 16 15 16 14 15 19 19 20 22 26 24 22
19 18 18 19 17 15 15 14 12 13 10 9 8 7 6 7 3 7 6 9 10 7 7 3 6 5 5 5 7 5 1 5 9 12 16 12 13 10 12 17 16 19 18 20 21 19 21
20 19 19 18 17 15 15 13 13 13 11 10 9 9 8 3 8 6 6 9 8 5 7 6 8 5 2 7 7 12 5 5 12 16 15 18 18 20 22 19 15 18 17 15 21 19 21
21 20 20 19 17 16 16 13 13 13 10 10 9 10 9 3 3 10 4 7 6 4 9 4 7 5 9 12 12 8 18 13 14 16 18 22 21 20 20 20 10 13 15 14 19 15 18
21 22 20 19 18 18 16 14 13 12 11 11 12 15 10 3 1 5 1 4 3 6 10 1 2 4 9 11 14 21 16 14 13 17 15 16 18 20 11 10 8 12 14 8 8 8 13
23 22 21 20 20 18 16 14 13 13 11 12 14 15 5 2 1 2 1 2 8 7 12 16 11 14 16 16 21 20 11 15 11 5 10 13 14 14 14 7 7 7 6 6 8 12 14
24 23 22 21 19 17 16 15 14 14 13 13 12 3 2 2 5 0 4 5 7 8 7 12 13 17 16 13 3 14 14 15 7 3 4 6 8 4 3 2 2 3 5 1 4 15 11
23 22 21 20 19 18 17 16 17 16 14 20 5 4 2 6 4 4 2 7 8 14 9 8 7 3 5 8 2 6 6 5 3 2 2 2 10 9 5 2 9 12 8 6 3 5 10
21 20 20 21 20 19 18 18 17 15 15 18 4 4 2 7 4 1 7 8 9 14 8 7 7 7 5 4 12 12 5 2 5 3 4 0 6 6 15 7 11 9 10 2 6 7 6
19 19 19 20 19 19 18 18 17 15 16 10 4 3 1 3 4 2 6 7 2 8 2 3 3 6 5 3 3 6 9 5 2 4 4 2 5 10 17 19 20 19 18 17 7 6 6
21 19 20 19 19 20 20 20 18 18 24 6 5 4 2 1 5 5 3 4 5 7 8 8 8 9 6 6 5 11 8 5 5 6 1 4 4 7 9 2 6 4 9 7 7 11 15
19 17 19 18 20 21 21 21 16 26 19 7 5 5 1 2 1 3 7 6 6 5 3 5 3 5 4 6 10 4 5 8 5 2 8 4 5 10 12 16 15 16 18 17 15 11 14
17 20 19 20 18 17 16 14 19 26 22 5 2 3 1 7 6 5 7 4 6 6 7 8 4 10 7 6 9 7 8 5 8 9 5 5 8 13 18 18 18 19 20 18 19 20 22
12 13 13 13 13 14 14 15 20 24 16 5 6 4 2 2 5 12 7 7 8 5 8 5 6 9 15 5 9 3 7 8 9 10 15 13 15 16 18 16 16 20 19 22 22 25 24
9 9 10 11 13 16 17 22 26 24 11 4 2 1 2 7 5 5 5 10 10 8 7 5 11 4 5 7 9 11 10 10 11 11 13 14 11 12 17 16 17 16 13 20 25 16 16
18 21 24 25 24 24 22 21 19 13 7 4 3 4 4 3 4 5 3 9 7 9 4 3 2 1 2 2 5 7 10 13 15 17 14 16 15 11 14 16 18 14 20 22 9 11 13
24 24 25 25 25 25 23 20 17 14 8 6 3 3 3 4 4 8 9 5 8 6 3 4 7 7 3 3 2 6 7 13 20 21 18 16 14 11 13 15 19 24 19 7 11 15 13
25 26 26 24 23 22 21 18 16 16 14 6 2 1 3 4 6 9 10 8 6 7 7 7 10 6 3 1 2 4 5 10 6 7 19 20 16 11 13 16 18 19 13 7 14 13 13
28 26 27 24 21 20 19 16 14 12 6 4 5 5 2 1 7 5 4 7 4 6 6 10 8 2 2 2 5 8 12 15 16 19 17 11 7 12 12 11 11 5 14 11 5 8 17
26 25 27 23 20 19 18 17 15 14 13 4 5 5 3 2 7 8 5 4 4 1 2 7 6 4 5 4 6 8 9 12 13 12 10 12 10 10 10 12 11 13 8 3 5 9 13
27 26 25 24 21 20 19 16 14 12 9 3 5 1 3 6 5 5 7 8 11 10 3 4 3 1 5 4 3 4 7 7 10 10 12 11 9 8 7 9 15 8 6 9 4 5 10
Wind_Direction
216 220 227 233 238 243 248 259 268 284 301 308 315 319 321 319 322 320 319 317 316 315 316 315 324 316 322 299 294 126 168 179 233 246 260 261 252 257 261 266 266 272 273 277 275 280 273
213 223 226 234 234 241 249 258 267 274 291 296 307 312 312 313 316 315 315 313 311 309 312 314 318 310 295 288 21 146 227 216 236 236 243 254 265 279 284 290 284 289 293 292 292 295 287
216 223 226 236 234 237 245 251 259 271 283 291 302 303 306 309 314 313 313 308 304 302 304 307 302 292 277 265 344 300 261 250 265 244 257 258 270 264 286 291 276 293 291 286 278 273 269
209 219 226 233 234 240 238 246 255 261 274 288 297 299 302 304 313 312 309 304 299 296 296 295 259 283 262 28 308 291 323 274 227 258 269 282 291 285 269 277 282 277 275 275 272 266 266
208 213 219 226 229 231 240 243 251 253 268 278 290 292 297 308 316 312 306 301 293 285 276 213 271 213 278 130 225 345 288 289 343 275 258 272 288 263 272 267 272 261 263 268 270 274 296
207 209 215 221 228 228 235 240 245 249 249 261 280 281 291 310 313 305 309 296 282 290 252 237 241 273 226 320 328 307 272 252 257 282 253 220 254 256 250 253 261 281 290 291 291 297 306
209 210 215 215 222 229 233 237 237 239 237 248 259 272 288 308 308 303 327 307 0 325 358 289 280 287 280 299 302 229 321 259 239 228 251 261 254 252 265 273 291 301 297 291 290 295 297
209 207 212 217 218 223 227 237 231 228 232 231 244 263 279 294 303 308 300 353 14 316 298 275 263 263 264 306 272 215 232 242 179 231 240 232 239 253 261 273 282 278 283 284 286 293 285
206 202 210 217 218 217 222 229 230 227 226 224 230 243 264 289 314 296 309 21 337 348 275 296 248 233 219 206 274 170 230 319 275 275 272 267 274 300 282 255 274 271 274 287 288 297 287
202 199 209 216 215 217 216 220 223 228 219 211 215 224 225 286 315 342 321 344 355 344 286 190 174 192 172 236 249 228 185 335 301 294 291 284 282 297 297 289 289 278 283 299 298 302 290
200 203 208 212 214 214 218 211 222 227 214 201 199 198 189 179 329 288 333 338 335 270 312 101 120 95 213 244 325 170 190 232 292 290 291 268 284 286 281 273 270 286 307 319 308 290 293
201 204 209 209 210 213 216 214 220 225 214 193 190 177 157 198 220 269 348 309 292 243 252 231 128 187 208 225 244 283 302 291 277 259 266 271 267 273 274 277 286 298 299 294 286 272 267
200 202 208 211 210 213 214 212 218 218 209 189 178 169 184 181 185 9 133 263 252 218 313 313 273 199 274 285 282 303 302 300 286 288 272 297 305 292 328 311 283 262 260 294 273 228 246
200 202 206 209 211 209 212 209 211 212 206 187 179 169 237 213 292 40 107 148 233 248 259 304 300 288 268 278 288 284 281 280 280 353 290 279 304 12 10 33 335 322 341 217 280 285 297
202 202 204 208 209 206 207 202 206 203 201 183 147 134 158 231 94 135 137 207 218 204 264 299 305 283 284 281 300 306 273 267 42 65 253 322 252 92 30 44 358 38 227 349 270 258 263
202 204 205 205 207 204 203 203 207 205 187 151 139 144 174 126 108 88 148 232 231 237 292 268 255 233 269 289 338 257 269 46 65 358 292 45 280 272 263 9 254 250 282 255 206 255 245
204 203 204 206 206 204 203 204 205 205 181 151 104 150 89 112 82 88 205 222 244 231 203 220 234 246 245 268 241 256 259 144 199 190 321 303 241 277 318 244 263 263 258 304 316 269 282
200 204 207 207 206 206 207 207 205 205 155 140 133 182 153 187 135 202 223 193 162 207 152 195 206 227 236 253 234 245 238 238 180 181 222 76 295 270 274 282 282 287 283 279 260 283 269
198 204 210 210 209 209 206 208 207 163 154 135 118 113 0 324 192 197 239 259 235 195 205 187 212 218 216 203 232 241 242 143 174 214 270 133 232 302 290 202 4 336 334 264 282 284 273
198 203 210 210 215 217 214 211 197 172 154 98 137 137 129 185 5 217 176 212 209 235 232 197 210 153 178 217 226 258 221 184 189 209 74 7 253 248 261 283 314 295 285 280 284 278 282
192 215 212 212 219 220 215 195 169 170 149 102 119 186 203 180 208 188 182 170 182 190 220 214 203 209 189 224 223 222 219 193 227 165 201 228 260 260 269 280 290 289 286 289 284 280 272
201 208 217 209 193 199 188 181 166 153 125 88 137 152 80 99 112 177 180 197 193 166 173 198 231 211 223 211 210 193 240 236 251 213 227 222 253 267 269 271 276 277 276 270 271 273 275
197 181 169 165 147 138 137 142 140 148 116 124 136 32 134 147 151 158 203 206 205 153 204 214 212 206 237 236 274 278 286 273 267 262 258 263 264 258 267 279 284 279 266 271 274 297 294
140 133 126 124 121 118 119 122 136 134 106 112 147 134 110 163 172 185 196 190 187 180 151 176 241 277 21 352 321 293 277 273 269 262 260 263 260 262 268 275 264 270 268 280 344 291 353
124 119 118 119 119 113 107 107 112 108 102 106 148 109 141 136 160 168 162 157 141 158 173 183 207 89 151 52 346 292 260 247 247 243 238 237 249 258 261 260 279 284 294 3 329 304 51
115 113 112 110 103 103 104 105 100 103 111 95 67 159 167 134 189 168 170 179 181 187 195 155 74 66 61 298 180 239 257 312 291 319 220 226 214 229 246 259 267 272 24 332 314 280 12
113 114 113 109 110 112 113 109 93 74 47 110 88 355 234 173 64 28 158 195 211 194 202 184 131 134 209 223 243 259 266 272 279 278 275 273 260 228 245 254 274 343 335 332 300 336 331
115 116 113 117 115 108 100 92 83 68 51 97 76 22 330 96 55 40 17 43 31 22 200 112 145 197 180 225 263 279 271 277 290 291 291 287 297 292 267 258 282 17 14 15 310 309 312
115 113 113 109 104 99 94 90 81 66 48 357 106 3 342 64 73 37 42 25 21 27 348 117 225 116 205 218 254 316 309 305 295 289 293 290 287 300 284 284 297 329 168 250 23 301 301